TimeCDT,TemperatureF,Dew PointF,Humidity,Sea Level PressureIn,VisibilityMPH,Wind Direction,Wind SpeedMPH,Gust SpeedMPH,PrecipitationIn,Events,Conditions,WindDirDegrees,DateUTC
12:54 AM,14.0,3.9,64,30.53,10.0,NNW,10.4,-,N/A,,Clear,340,2014-03-23 05:54:00
1:54 AM,12.9,3.9,67,30.54,10.0,NNW,11.5,-,N/A,,Clear,340,2014-03-23 06:54:00
2:54 AM,12.0,3.9,70,30.54,10.0,NNW,9.2,-,N/A,,Clear,330,2014-03-23 07:54:00
3:54 AM,10.9,3.0,70,30.53,10.0,NNW,10.4,-,N/A,,Clear,330,2014-03-23 08:54:00
4:54 AM,10.0,3.0,73,30.53,10.0,NNW,9.2,-,N/A,,Clear,330,2014-03-23 09:54:00
5:54 AM,9.0,3.0,77,30.54,10.0,NW,6.9,-,N/A,,Clear,320,2014-03-23 10:54:00
6:54 AM,9.0,1.9,73,30.55,10.0,NW,8.1,-,N/A,,Clear,320,2014-03-23 11:54:00
7:54 AM,9.0,1.0,70,30.56,10.0,NNW,8.1,-,N/A,,Clear,340,2014-03-23 12:54:00
8:54 AM,10.9,1.0,64,30.55,10.0,NNW,8.1,-,N/A,,Clear,340,2014-03-23 13:54:00
9:54 AM,12.9,1.9,62,30.56,10.0,NW,10.4,-,N/A,,Clear,320,2014-03-23 14:54:00
10:54 AM,15.1,3.0,59,30.56,10.0,NW,10.4,-,N/A,,Clear,320,2014-03-23 15:54:00
11:30 AM,16.0,3.9,59,30.47,10.0,NW,8.1,-,N/A,,Mostly Cloudy,310,2014-03-23 16:30:00
11:54 AM,16.0,3.9,59,30.54,10.0,WNW,6.9,-,N/A,,Mostly Cloudy,300,2014-03-23 16:54:00
12:54 PM,18.0,5.0,57,30.53,10.0,WNW,10.4,-,N/A,,Mostly Cloudy,290,2014-03-23 17:54:00
1:47 PM,19.9,8.1,60,30.43,10.0,WNW,13.8,-,N/A,,Overcast,290,2014-03-23 18:47:00
1:54 PM,19.9,6.1,55,30.51,10.0,West,9.2,-,N/A,,Overcast,270,2014-03-23 18:54:00
2:54 PM,21.0,8.1,57,30.49,10.0,WNW,11.5,-,0.00,,Overcast,290,2014-03-23 19:54:00
3:54 PM,21.0,9.0,60,30.47,8.0,WNW,8.1,-,0.00,,Overcast,300,2014-03-23 20:54:00
4:54 PM,21.9,9.0,58,30.45,10.0,WNW,10.4,-,0.00,,Overcast,290,2014-03-23 21:54:00
5:54 PM,21.9,10.0,60,30.44,10.0,WNW,5.8,-,N/A,,Overcast,300,2014-03-23 22:54:00
6:54 PM,21.0,9.0,60,30.42,9.0,West,5.8,-,N/A,,Overcast,260,2014-03-23 23:54:00
7:54 PM,19.9,10.0,65,30.41,10.0,West,4.6,-,N/A,,Partly Cloudy,270,2014-03-24 00:54:00
8:54 PM,19.0,10.0,68,30.41,10.0,WSW,3.5,-,N/A,,Clear,250,2014-03-24 01:54:00
9:54 PM,19.0,10.9,71,30.41,10.0,SW,4.6,-,N/A,,Clear,220,2014-03-24 02:54:00
10:54 PM,19.0,10.9,71,30.41,10.0,SW,3.5,-,N/A,,Clear,220,2014-03-24 03:54:00
11:54 PM,18.0,10.9,74,30.40,10.0,SSW,4.6,-,N/A,,Partly Cloudy,200,2014-03-24 04:54:00